Time,TemperatureF,DewpointF,PressureIn,WindDirection,WindDirectionDegrees,WindSpeedMPH,WindSpeedGustMPH,Humidity,HourlyPrecipIn,Conditions,Clouds,dailyrainin,SoftwareType,DateUTC
2013-03-06 11:30:00,38.7,10.6,29.84,North,0,3.6,3.6,31,0.00,,,0.00,WUHU216HW,2013-03-06 16:30:00,
2013-03-06 11:35:00,38.7,12.5,29.84,North,0,3.4,3.6,34,0.00,,,0.00,WUHU216HW,2013-03-06 16:35:00,
2013-03-06 11:40:00,38.7,12.5,29.84,North,0,3.4,3.4,34,0.00,,,0.00,WUHU216HW,2013-03-06 16:40:00,
2013-03-06 11:59:00,39.6,18.8,29.84,North,0,6.9,6.9,43,0.00,,,0.00,WUHU216HW,2013-03-06 16:59:00,
2013-03-06 12:04:00,39.6,18.8,29.84,North,0,6.9,6.9,43,0.00,,,0.00,WUHU216HW,2013-03-06 17:04:00,
2013-03-06 12:29:00,40.7,19.8,29.84,SSW,203,3.8,3.8,43,0.00,,,0.00,WUHU216HW,2013-03-06 17:29:00,
2013-03-06 12:30:00,40.7,19.8,29.84,SSW,203,3.8,3.8,43,0.00,,,0.00,WUHU216HW,2013-03-06 17:30:00,
2013-03-06 12:34:00,40.7,19.8,29.84,SSW,203,3.8,3.8,43,0.00,,,0.00,WUHU216HW,2013-03-06 17:34:00,
2013-03-06 12:35:00,40.7,19.8,29.84,SSW,203,3.8,3.8,43,0.00,,,0.00,WUHU216HW,2013-03-06 17:35:00,
2013-03-06 12:59:00,40.5,22.8,29.84,SSW,203,3.4,3.4,49,0.00,,,0.00,WUHU216HW,2013-03-06 17:59:00,
2013-03-06 13:04:00,40.5,22.8,29.84,SSW,203,3.4,3.4,49,0.00,,,0.00,WUHU216HW,2013-03-06 18:04:00,
2013-03-06 13:29:00,40.1,22.4,29.85,SSW,203,3.4,3.4,49,0.00,,,0.00,WUHU216HW,2013-03-06 18:29:00,
2013-03-06 13:30:00,40.1,22.4,29.85,SSW,203,3.4,3.4,49,0.00,,,0.00,WUHU216HW,2013-03-06 18:30:00,
2013-03-06 13:34:00,40.1,22.4,29.85,SSW,203,3.4,3.4,49,0.00,,,0.00,WUHU216HW,2013-03-06 18:34:00,
2013-03-06 13:35:00,40.1,22.4,29.85,SSW,203,3.4,3.4,49,0.00,,,0.00,WUHU216HW,2013-03-06 18:35:00,
2013-03-06 13:59:00,39.6,20.9,29.85,North,0,7.6,7.6,47,0.00,,,0.00,WUHU216HW,2013-03-06 18:59:00,
2013-03-06 14:04:00,39.6,20.9,29.85,North,0,7.6,7.6,47,0.00,,,0.00,WUHU216HW,2013-03-06 19:04:00,
2013-03-06 14:29:00,39.6,21.4,29.86,North,0,4.9,4.9,48,0.00,,,0.00,WUHU216HW,2013-03-06 19:29:00,
2013-03-06 14:30:00,39.6,21.4,29.86,North,0,4.9,4.9,48,0.00,,,0.00,WUHU216HW,2013-03-06 19:30:00,
2013-03-06 14:34:00,39.6,21.4,29.86,North,0,4.9,4.9,48,0.00,,,0.00,WUHU216HW,2013-03-06 19:34:00,
2013-03-06 14:35:00,39.6,21.4,29.86,North,0,4.9,4.9,48,0.00,,,0.00,WUHU216HW,2013-03-06 19:35:00,
2013-03-06 14:59:00,39.6,22.0,29.86,SSW,203,4.7,4.7,49,0.00,,,0.00,WUHU216HW,2013-03-06 19:59:00,
2013-03-06 15:04:00,39.6,22.0,29.86,SSW,203,4.7,4.7,49,0.00,,,0.00,WUHU216HW,2013-03-06 20:04:00,
2013-03-06 15:05:00,39.6,22.0,29.86,SSW,203,4.7,4.7,49,0.00,,,0.00,WUHU216HW,2013-03-06 20:05:00,
2013-03-06 15:29:00,39.2,22.6,29.86,SSW,203,10.5,10.5,51,0.00,,,0.00,WUHU216HW,2013-03-06 20:29:00,
2013-03-06 15:30:00,39.2,22.6,29.86,SSW,203,10.5,10.5,51,0.00,,,0.00,WUHU216HW,2013-03-06 20:30:00,
2013-03-06 15:34:00,39.2,22.6,29.86,SSW,203,10.5,10.5,51,0.00,,,0.00,WUHU216HW,2013-03-06 20:34:00,
2013-03-06 15:35:00,39.2,22.6,29.86,SSW,203,10.5,10.5,51,0.00,,,0.00,WUHU216HW,2013-03-06 20:35:00,